Location: Unspecified
(0.0000°N, 0.0000°E)
Time: 17:36:39
(UTC+00:00)

SEEDS - Visible Passes

Search period start: 20 June 2018 00:00
Search period end: 30 June 2018 00:00
Orbit: 586 x 606 km, 97.5° (Epoch: 19 June)

Date Brightness Start Highest point End Pass type
(mag) Time Alt. Az. Time Alt. Az. Time Alt. Az.
21 Jun ? 18:23:00 10° SSE 18:27:03 54° ENE 18:31:06 10° N visible
22 Jun ? 18:32:47 10° SSE 18:36:56 79° ENE 18:41:04 10° N visible
23 Jun ? 18:42:40 10° S 18:46:49 72° W 18:50:56 10° NNW visible
24 Jun ? 18:52:40 10° S 18:56:41 49° WSW 19:00:41 10° NNW visible
25 Jun ? 19:02:47 10° SSW 19:06:33 34° WSW 19:10:20 10° NW visible
26 Jun ? 05:35:44 10° E 05:36:04 10° ESE 05:36:24 10° ESE visible
26 Jun ? 19:13:01 10° SSW 19:16:26 25° WSW 19:19:50 10° NW visible
27 Jun ? 19:23:28 10° SW 19:26:18 18° WSW 19:29:08 10° WNW visible
28 Jun ? 19:34:17 10° SW 19:36:10 13° WSW 19:38:03 10° WNW visible
